Change the Weather History Date:

Sunday, August 25, 2013

  Actual Average Record
Temperature  
Mean Temperature 78 °F -  
Max Temperature 86 °F 80 °F 99 °F (1948)
Min Temperature 71 °F 58 °F 35 °F (1958)
Cooling Degree Days 14    
Growing Degree Days 28 (Base 50)    
Moisture  
Dew Point 69 °F    
Average Humidity 72    
Maximum Humidity 83    
Minimum Humidity 61    
Precipitation  
Precipitation 0.00 in - - ()
Sea Level Pressure  
Sea Level Pressure 30.11 in    
Wind  
Wind Speed 10 mph (SSW)    
Max Wind Speed 13 mph    
Max Gust Speed 23 mph    
Visibility 10 miles    
Events      
Averages and records for this station are not official NWS values.
T = Trace of Precipitation, MM = Missing Value Source: NWS Daily Summary

Daily Weather History Graph

Daily Weather History Graph

Search for Another Location

Airport or City:

Trip Planner

Search our weather history database for the weather conditions in past years. The results will help you decide how hot, cold, wet, or windy it might be!

Date:

Astronomy

Aug. 25, 2013 Rise Set
Actual Time 6:23 AM CDT 7:53 PM CDT
Civil Twilight 5:53 AM CDT 8:23 PM CDT
Nautical Twilight 5:17 AM CDT 8:59 PM CDT
Astronomical Twilight 4:39 AM CDT 9:37 PM CDT
Moon 10:14 PM CDT (8/25) 11:36 AM CDT (8/25)
Length of Visible Light 14h 29m
Length of Day
13h 29m
Waning Gibbous, 75% of the Moon is Illuminated
Aug 25
Waning Gibbous
Aug 28
Last Quarter
Sep 5
New
Sep 12
First Quarter
Sep 19
Full

Hourly Weather History & Observations

Time (CDT) Temp. Heat Index Dew Point Humidity Pressure Visibility Wind Dir Wind Speed Gust Speed Precip Events Conditions
12:15 AM 77.0 °F - 69.8 °F 78% 30.11 in 10.0 mi South 10.4 mph 19.6 mph N/A   Partly Cloudy
12:35 AM 77.0 °F - 69.8 °F 78% 30.11 in 10.0 mi South 9.2 mph 17.3 mph N/A   Partly Cloudy
12:55 AM 77.0 °F - 69.8 °F 78% 30.11 in 10.0 mi South 11.5 mph 18.4 mph N/A   Partly Cloudy
1:15 AM 77.0 °F - 69.8 °F 78% 30.11 in 10.0 mi South 10.4 mph 20.7 mph N/A   Partly Cloudy
1:35 AM 77.0 °F - 69.8 °F 78% 30.11 in 10.0 mi South 10.4 mph 19.6 mph N/A   Partly Cloudy
1:55 AM 77.0 °F - 69.8 °F 78% 30.11 in 10.0 mi South 9.2 mph 17.3 mph N/A   Partly Cloudy
2:15 AM 75.2 °F - 69.8 °F 83% 30.11 in 10.0 mi South 9.2 mph 17.3 mph N/A   Partly Cloudy
2:35 AM 75.2 °F - 69.8 °F 83% 30.12 in 10.0 mi South 8.1 mph 16.1 mph N/A   Partly Cloudy
2:55 AM 75.2 °F - 68.0 °F 78% 30.12 in 10.0 mi South 9.2 mph - N/A   Partly Cloudy
3:15 AM 75.2 °F - 68.0 °F 78% 30.13 in 10.0 mi Variable 5.8 mph 13.8 mph N/A   Partly Cloudy
3:35 AM 75.2 °F - 68.0 °F 78% 30.13 in 10.0 mi Variable 6.9 mph 12.7 mph N/A   Clear
3:55 AM 75.2 °F - 68.0 °F 78% 30.13 in 10.0 mi South 8.1 mph 15.0 mph N/A   Clear
4:15 AM 73.4 °F - 68.0 °F 83% 30.13 in 10.0 mi South 9.2 mph 15.0 mph N/A   Partly Cloudy
4:35 AM 73.4 °F - 68.0 °F 83% 30.13 in 10.0 mi South 8.1 mph 16.1 mph N/A   Partly Cloudy
4:55 AM 73.4 °F - 68.0 °F 83% 30.14 in 10.0 mi South 9.2 mph 15.0 mph N/A   Partly Cloudy
5:15 AM 73.4 °F - 68.0 °F 83% 30.14 in 10.0 mi South 9.2 mph - N/A   Partly Cloudy
5:35 AM 73.4 °F - 68.0 °F 83% 30.14 in 10.0 mi SSW 8.1 mph 16.1 mph N/A   Partly Cloudy
5:55 AM 73.4 °F - 68.0 °F 83% 30.14 in 10.0 mi South 9.2 mph 16.1 mph N/A   Clear
6:15 AM 73.4 °F - 68.0 °F 83% 30.15 in 10.0 mi South 8.1 mph 15.0 mph N/A   Clear
6:35 AM 71.6 °F - 66.2 °F 83% 30.15 in 9.0 mi Variable 6.9 mph 13.8 mph N/A   Clear
6:55 AM 71.6 °F - 66.2 °F 83% 30.15 in 10.0 mi South 9.2 mph - N/A   Clear
7:15 AM 71.6 °F - 66.2 °F 83% 30.16 in 10.0 mi SSW 8.1 mph 15.0 mph N/A   Clear
7:35 AM 73.4 °F - 66.2 °F 78% 30.16 in 10.0 mi SSW 9.2 mph 15.0 mph N/A   Clear
7:55 AM 73.4 °F - 66.2 °F 78% 30.16 in 9.0 mi SSW 8.1 mph 17.3 mph N/A   Clear
8:15 AM 75.2 °F - 66.2 °F 73% 30.16 in 10.0 mi SSW 10.4 mph 20.7 mph N/A   Clear
8:35 AM 75.2 °F - 66.2 °F 73% 30.16 in 10.0 mi SSW 8.1 mph 18.4 mph N/A   Clear
8:55 AM 75.2 °F - 66.2 °F 73% 30.16 in 10.0 mi SW 12.7 mph - N/A   Clear
9:15 AM 77.0 °F - 68.0 °F 74% 30.16 in 10.0 mi SW 11.5 mph - N/A   Clear
9:35 AM 77.0 °F - 68.0 °F 74% 30.16 in 10.0 mi SSW 10.4 mph 19.6 mph N/A   Clear
9:55 AM 78.8 °F - 68.0 °F 69% 30.16 in 10.0 mi SSW 12.7 mph 19.6 mph N/A   Clear
10:15 AM 78.8 °F - 68.0 °F 69% 30.16 in 10.0 mi SW 8.1 mph 19.6 mph N/A   Clear
10:35 AM 80.6 °F 83.9 °F 69.8 °F 70% 30.15 in 10.0 mi SW 11.5 mph 18.4 mph N/A   Clear
10:55 AM 80.6 °F 83.9 °F 69.8 °F 70% 30.15 in 10.0 mi SW 9.2 mph 19.6 mph N/A   Clear
11:15 AM 80.6 °F 83.9 °F 69.8 °F 70% 30.14 in 10.0 mi SSW 12.7 mph 20.7 mph N/A   Clear
11:35 AM 82.4 °F 86.3 °F 69.8 °F 66% 30.14 in 10.0 mi SW 9.2 mph 18.4 mph N/A   Clear
11:55 AM 82.4 °F 86.3 °F 69.8 °F 66% 30.14 in 10.0 mi SW 12.7 mph 21.9 mph N/A   Clear
12:15 PM 82.4 °F 86.3 °F 69.8 °F 66% 30.13 in 10.0 mi SSW 11.5 mph 23.0 mph N/A   Clear
12:35 PM 84.2 °F 89.6 °F 71.6 °F 66% 30.13 in 9.0 mi SSW 11.5 mph 20.7 mph N/A   Clear
12:55 PM 84.2 °F 89.6 °F 71.6 °F 66% 30.12 in 9.0 mi SW 11.5 mph 18.4 mph N/A   Clear
1:15 PM 84.2 °F 89.6 °F 71.6 °F 66% 30.12 in 10.0 mi SW 9.2 mph 18.4 mph N/A   Clear
1:35 PM 84.2 °F 89.6 °F 71.6 °F 66% 30.11 in 9.0 mi South 10.4 mph 18.4 mph N/A   Clear
1:55 PM 86.0 °F 91.8 °F 71.6 °F 62% 30.11 in 10.0 mi SSW 11.5 mph 19.6 mph N/A   Clear
2:15 PM 86.0 °F 91.8 °F 71.6 °F 62% 30.10 in 10.0 mi SW 12.7 mph 21.9 mph N/A   Clear
2:35 PM 86.0 °F 91.8 °F 71.6 °F 62% 30.10 in 10.0 mi SSW 11.5 mph 20.7 mph N/A   Clear
2:55 PM 86.0 °F 91.8 °F 71.6 °F 62% 30.09 in 9.0 mi SSW 12.7 mph 19.6 mph N/A   Clear
3:15 PM 86.0 °F 93.4 °F 73.4 °F 66% 30.09 in 10.0 mi South 9.2 mph 19.6 mph N/A   Clear
3:35 PM 86.0 °F 93.4 °F 73.4 °F 66% 30.09 in 9.0 mi SSW 10.4 mph 18.4 mph N/A   Clear
3:55 PM 86.0 °F 91.8 °F 71.6 °F 62% 30.09 in 10.0 mi Variable 6.9 mph 19.6 mph N/A   Clear
4:15 PM 86.0 °F 93.4 °F 73.4 °F 66% 30.08 in 10.0 mi Variable 6.9 mph 16.1 mph N/A   Clear
4:35 PM 86.0 °F 93.4 °F 73.4 °F 66% 30.08 in 10.0 mi South 8.1 mph 16.1 mph N/A   Clear
4:55 PM 86.0 °F 93.4 °F 73.4 °F 66% 30.08 in 10.0 mi SSW 9.2 mph 19.6 mph N/A   Clear
5:15 PM 86.0 °F 91.8 °F 71.6 °F 62% 30.08 in 10.0 mi South 10.4 mph 18.4 mph N/A   Clear
5:35 PM 86.0 °F 91.8 °F 71.6 °F 62% 30.08 in 10.0 mi South 9.2 mph 17.3 mph N/A   Clear
5:55 PM 86.0 °F 91.8 °F 71.6 °F 62% 30.08 in 10.0 mi SSW 9.2 mph 20.7 mph N/A   Clear
6:15 PM 84.2 °F 89.6 °F 71.6 °F 66% 30.07 in 10.0 mi South 10.4 mph 17.3 mph N/A   Clear
6:35 PM 84.2 °F 89.6 °F 71.6 °F 66% 30.07 in 9.0 mi South 9.2 mph 16.1 mph N/A   Clear
6:55 PM 84.2 °F 89.6 °F 71.6 °F 66% 30.07 in 10.0 mi South 8.1 mph - N/A   Clear
7:15 PM 82.4 °F 87.2 °F 71.6 °F 70% 30.07 in 10.0 mi South 10.4 mph - N/A   Clear
7:35 PM 82.4 °F 87.2 °F 71.6 °F 70% 30.07 in 10.0 mi South 8.1 mph - N/A   Clear
7:55 PM 80.6 °F 84.6 °F 71.6 °F 74% 30.07 in 10.0 mi South 6.9 mph 13.8 mph N/A   Clear
8:15 PM 80.6 °F 84.6 °F 71.6 °F 74% 30.07 in 10.0 mi South 8.1 mph - N/A   Clear
8:35 PM 80.6 °F 84.6 °F 71.6 °F 74% 30.08 in 10.0 mi South 5.8 mph - N/A   Clear
8:55 PM 78.8 °F - 71.6 °F 78% 30.09 in 10.0 mi South 6.9 mph - N/A   Clear
9:15 PM 78.8 °F - 71.6 °F 78% 30.09 in 10.0 mi South 8.1 mph - N/A   Clear
9:35 PM 78.8 °F - 69.8 °F 74% 30.09 in 10.0 mi South 9.2 mph - N/A   Clear
9:55 PM 78.8 °F - 69.8 °F 74% 30.08 in 10.0 mi South 11.5 mph - N/A   Clear
10:15 PM 78.8 °F - 68.0 °F 69% 30.09 in 10.0 mi SSW 9.2 mph 17.3 mph N/A   Clear
10:35 PM 78.8 °F - 66.2 °F 65% 30.09 in 10.0 mi South 9.2 mph 16.1 mph N/A   Clear
10:55 PM 78.8 °F - 66.2 °F 65% 30.10 in 10.0 mi South 10.4 mph 17.3 mph N/A   Clear
11:15 PM 78.8 °F - 64.4 °F 61% 30.09 in 10.0 mi SSW 9.2 mph 16.1 mph N/A   Clear
11:35 PM 78.8 °F - 64.4 °F 61% 30.09 in 10.0 mi South 9.2 mph - N/A   Clear
11:55 PM 77.0 °F - 62.6 °F 61% 30.09 in 10.0 mi South 9.2 mph 16.1 mph N/A   Clear